APRIZESAT 4

Last updated on July 6, 2021, 3:39 p.m. UTC

1 35684U 09041D   21186.88907892  .00000103  00000-0  21372-4 0  9992
2 35684  98.3070 183.7293 0047634  24.6207 335.7263 14.79378404643822
UTC
Height (km)
Latitude
Longitude
Inclination
Orbital Period
UTC large
Height (km)
Speed (km/s)
/
Latitude / Longitude
Inclination (degrees)
Orbital Period (minutes)
Azimuth
Elevation
Range (km)
Doppler Factor
iOS Compass Heading
iOS Angle